Station Historical Data
Daily Summary for August 19, 2017 Units:  Metric    English   Both
« Previous Day
Next Day »
Daily Weekly Monthly Yearly Custom
  High: Low: Average:
Temperature: 24.8 °C 18.2 °C 21.4 °C
Dew Point: 18.2 °C 13.7 °C 16.3 °C
Humidity: 83% 62% 73%
Wind Speed: 22.5km/h 0km/h 7.9km/h
Wind Gust: 35.4km/h - -
Wind- - West
Pressure: 1014.1 hPa 1008 hPa -
Precipitation: 0 mm    
Historical Graphs
 
 
Tabular Data for August 19, 2017
Time Temperature Dew Point Pressure Wind Wind Speed Wind Gust Humidity Rainfall Rate (Hourly)
00:04 22.3 °C 16.8 °C 1009 hPa WSW 6.4 km/h 12.9 km/h 71% 0 mm
00:09 22.3 °C 16.8 °C 1009 hPa WSW 4.8 km/h 11.3 km/h 71% 0 mm
00:14 22.3 °C 17 °C 1009 hPa SW 3.2 km/h 8 km/h 72% 0 mm
00:19 22.3 °C 17 °C 1009 hPa WSW 4.8 km/h 11.3 km/h 72% 0 mm
00:24 22.3 °C 17 °C 1009 hPa WSW 4.8 km/h 12.9 km/h 72% 0 mm
00:29 22.3 °C 16.8 °C 1009 hPa NW 4.8 km/h 16.1 km/h 71% 0 mm
00:34 22.3 °C 16.8 °C 1009 hPa West 12.9 km/h 12.9 km/h 71% 0 mm
00:39 22.3 °C 16.8 °C 1009 hPa WNW 1.6 km/h 16.1 km/h 71% 0 mm
00:44 22.3 °C 16.8 °C 1009 hPa WNW 8 km/h 12.9 km/h 71% 0 mm
00:49 22.3 °C 16.8 °C 1009 hPa WNW 4.8 km/h 16.1 km/h 71% 0 mm
00:54 22.3 °C 16.8 °C 1009 hPa West 9.7 km/h 14.5 km/h 71% 0 mm
00:59 22.3 °C 16.8 °C 1009 hPa West 6.4 km/h 14.5 km/h 71% 0 mm
01:04 22.3 °C 16.8 °C 1009 hPa WSW 4.8 km/h 11.3 km/h 71% 0 mm
01:09 22.3 °C 17 °C 1009 hPa WSW 4.8 km/h 6.4 km/h 72% 0 mm
01:14 22.3 °C 17 °C 1009 hPa Calm   6.4 km/h 72% 0 mm
01:19 22.2 °C 16.9 °C 1008.7 hPa West 1.6 km/h 6.4 km/h 72% 0 mm
01:24 22.2 °C 17.1 °C 1008.7 hPa West 3.2 km/h 4.8 km/h 73% 0 mm
01:29 22.2 °C 17.2 °C 1008.7 hPa WSW 6.4 km/h 6.4 km/h 73% 0 mm
01:34 22.2 °C 17.6 °C 1008.7 hPa WSW 3.2 km/h 9.7 km/h 75% 0 mm
01:39 22.3 °C 17.8 °C 1008.7 hPa WSW 3.2 km/h 11.3 km/h 76% 0 mm
01:44 22.3 °C 18.1 °C 1008.7 hPa WSW 6.4 km/h 19.3 km/h 77% 0 mm
01:49 22.4 °C 17.9 °C 1008.7 hPa WSW 9.7 km/h 19.3 km/h 76% 0 mm
01:54 22.4 °C 18 °C 1008.7 hPa SW 8 km/h 12.9 km/h 76% 0 mm
01:59 22.5 °C 18.1 °C 1008.4 hPa SW 4.8 km/h 11.3 km/h 76% 0 mm
02:04 22.5 °C 18.1 °C 1008.4 hPa West 8 km/h 16.1 km/h 76% 0 mm
02:09 22.5 °C 17.8 °C 1008.4 hPa West 8 km/h 16.1 km/h 75% 0 mm
02:14 22.5 °C 17.8 °C 1008.7 hPa West 11.3 km/h 14.5 km/h 75% 0 mm
02:19 22.4 °C 17.8 °C 1008.7 hPa WNW 9.7 km/h 16.1 km/h 75% 0 mm
02:24 22.2 °C 17.5 °C 1008.7 hPa West 14.5 km/h 20.9 km/h 75% 0 mm
02:29 21.9 °C 17.3 °C 1008.7 hPa WNW 11.3 km/h 17.7 km/h 75% 0 mm
02:34 21.7 °C 17.1 °C 1008.7 hPa West 11.3 km/h 20.9 km/h 75% 0 mm
02:39 21.5 °C 17.1 °C 1008.7 hPa WNW 11.3 km/h 22.5 km/h 76% 0 mm
02:44 21.3 °C 16.9 °C 1008.4 hPa WNW 9.7 km/h 22.5 km/h 76% 0 mm
02:49 21.2 °C 16.8 °C 1008.4 hPa West 8 km/h 17.7 km/h 76% 0 mm
02:54 21.2 °C 16.8 °C 1008.4 hPa West 8 km/h 17.7 km/h 76% 0 mm
02:59 21.1 °C 16.7 °C 1008.4 hPa West 8 km/h 14.5 km/h 76% 0 mm
03:04 21 °C 16.6 °C 1008 hPa WNW 17.7 km/h 20.9 km/h 76% 0 mm
03:09 20.9 °C 16.6 °C 1008 hPa West 8 km/h 17.7 km/h 76% 0 mm
03:14 20.8 °C 16.4 °C 1008 hPa WNW 12.9 km/h 16.1 km/h 76% 0 mm
03:19 20.7 °C 16.6 °C 1008 hPa NW 6.4 km/h 16.1 km/h 77% 0 mm
03:24 20.6 °C 16.4 °C 1008 hPa WSW 11.3 km/h 16.1 km/h 77% 0 mm
03:29 20.6 °C 16.6 °C 1008 hPa WNW 11.3 km/h 17.7 km/h 78% 0 mm
03:34 20.4 °C 16.5 °C 1008 hPa West 9.7 km/h 17.7 km/h 78% 0 mm
03:39 20.3 °C 16.4 °C 1008 hPa West 8 km/h 17.7 km/h 78% 0 mm
03:44 20.3 °C 16.3 °C 1008 hPa West 8 km/h 17.7 km/h 78% 0 mm
03:49 20.2 °C 16.4 °C 1008 hPa WNW 8 km/h 14.5 km/h 79% 0 mm
03:54 20.1 °C 16.3 °C 1008 hPa West 4.8 km/h 14.5 km/h 79% 0 mm
03:59 20.1 °C 16.3 °C 1008 hPa WNW 6.4 km/h 16.1 km/h 79% 0 mm
04:04 20 °C 16.4 °C 1008 hPa West 6.4 km/h 16.1 km/h 80% 0 mm
04:09 20 °C 16.4 °C 1008 hPa West 4.8 km/h 14.5 km/h 80% 0 mm
04:14 19.9 °C 16.4 °C 1008 hPa West 11.3 km/h 19.3 km/h 80% 0 mm
04:19 19.9 °C 16.4 °C 1008 hPa WSW 8 km/h 17.7 km/h 80% 0 mm
04:24 19.8 °C 16.3 °C 1008.4 hPa SW 3.2 km/h 14.5 km/h 80% 0 mm
04:29 19.8 °C 16.3 °C 1008.4 hPa NW 1.6 km/h 8 km/h 80% 0 mm
04:34 19.8 °C 16.2 °C 1008.4 hPa West 6.4 km/h 14.5 km/h 80% 0 mm
04:39 19.7 °C 16.2 °C 1008.4 hPa West 6.4 km/h 14.5 km/h 80% 0 mm
04:44 19.7 °C 16.2 °C 1008.4 hPa West 6.4 km/h 16.1 km/h 80% 0 mm
04:49 19.7 °C 16.1 °C 1008.4 hPa West 9.7 km/h 16.1 km/h 80% 0 mm
04:54 19.6 °C 16 °C 1008.4 hPa NW 1.6 km/h 11.3 km/h 80% 0 mm
04:59 19.5 °C 16.2 °C 1008.4 hPa WNW 8 km/h 14.5 km/h 81% 0 mm
05:04 19.4 °C 16.1 °C 1008.4 hPa West 8 km/h 14.5 km/h 81% 0 mm
05:09 19.3 °C 16 °C 1008.4 hPa West 6.4 km/h 17.7 km/h 81% 0 mm
05:14 19.3 °C 16 °C 1008.4 hPa West 6.4 km/h 17.7 km/h 81% 0 mm
05:19 19.3 °C 15.9 °C 1008.4 hPa West 8 km/h 14.5 km/h 81% 0 mm
05:24 19.3 °C 15.9 °C 1008.4 hPa WNW 9.7 km/h 12.9 km/h 81% 0 mm
05:29 19.2 °C 15.9 °C 1008.4 hPa West 16.1 km/h 17.7 km/h 81% 0 mm
05:34 19.2 °C 15.9 °C 1008.4 hPa SW 6.4 km/h 16.1 km/h 81% 0 mm
05:39 19.2 °C 15.8 °C 1008.4 hPa West 8 km/h 19.3 km/h 81% 0 mm
05:44 19.2 °C 15.8 °C 1008.7 hPa West 8 km/h 19.3 km/h 81% 0 mm
05:49 19.2 °C 15.8 °C 1008.7 hPa West 8 km/h 14.5 km/h 81% 0 mm
05:54 19.2 °C 15.6 °C 1008.7 hPa West 8 km/h 16.1 km/h 80% 0 mm
06:04 19.3 °C 15.7 °C 1009 hPa WNW 8 km/h 9.7 km/h 80% 0 mm
06:09 19.2 °C 15.7 °C 1009 hPa West 6.4 km/h 17.7 km/h 80% 0 mm
06:14 19.3 °C 15.6 °C 1009 hPa West 8 km/h 17.7 km/h 79% 0 mm
06:19 19.3 °C 15.6 °C 1009 hPa West 8 km/h 17.7 km/h 79% 0 mm
06:24 19.3 °C 15.6 °C 1009 hPa WNW 8 km/h 16.1 km/h 79% 0 mm
06:29 19.3 °C 15.6 °C 1009 hPa West 8 km/h 11.3 km/h 79% 0 mm
06:34 19.3 °C 15.6 °C 1009 hPa WSW 6.4 km/h 12.9 km/h 79% 0 mm
06:39 19.3 °C 15.6 °C 1009 hPa West 6.4 km/h 14.5 km/h 79% 0 mm
06:44 19.3 °C 15.6 °C 1009 hPa West 6.4 km/h 14.5 km/h 79% 0 mm
06:49 19.3 °C 15.6 °C 1009 hPa West 9.7 km/h 11.3 km/h 79% 0 mm
06:54 19.4 °C 15.7 °C 1009.4 hPa WSW 3.2 km/h 14.5 km/h 79% 0 mm
06:59 19.3 °C 15.6 °C 1009.4 hPa SW 4.8 km/h 12.9 km/h 79% 0 mm
07:04 19.4 °C 15.7 °C 1009.4 hPa West 4.8 km/h 11.3 km/h 79% 0 mm
07:09 19.4 °C 15.4 °C 1009.4 hPa West 6.4 km/h 14.5 km/h 78% 0 mm
07:14 19.4 °C 15.4 °C 1009.4 hPa West 6.4 km/h 14.5 km/h 78% 0 mm
07:19 19.4 °C 15.5 °C 1009.4 hPa West 6.4 km/h 14.5 km/h 78% 0 mm
07:24 19.4 °C 15.5 °C 1009.4 hPa West 6.4 km/h 14.5 km/h 78% 0 mm
07:29 19.5 °C 15.3 °C 1009.4 hPa West 3.2 km/h 9.7 km/h 77% 0 mm
07:34 19.5 °C 15.3 °C 1009.7 hPa WSW 6.4 km/h 11.3 km/h 77% 0 mm
07:39 19.5 °C 15.2 °C 1009.4 hPa WSW 1.6 km/h 11.3 km/h 76% 0 mm
07:44 19.6 °C 15.2 °C 1009.7 hPa WSW 6.4 km/h 12.9 km/h 76% 0 mm
07:49 19.7 °C 15.3 °C 1009.7 hPa West 4.8 km/h 12.9 km/h 76% 0 mm
07:54 19.7 °C 15.2 °C 1009.7 hPa West 4.8 km/h 11.3 km/h 75% 0 mm
07:59 19.8 °C 15.2 °C 1009.7 hPa West 3.2 km/h 12.9 km/h 75% 0 mm
08:04 19.7 °C 15.2 °C 1009.7 hPa West 4.8 km/h 16.1 km/h 75% 0 mm
08:09 19.7 °C 15.3 °C 1009.7 hPa West 4.8 km/h 8 km/h 76% 0 mm
08:14 19.7 °C 15.3 °C 1009.7 hPa West 4.8 km/h 9.7 km/h 76% 0 mm
08:19 19.7 °C 15.3 °C 1009.7 hPa WSW 4.8 km/h 9.7 km/h 76% 0 mm
08:24 19.7 °C 15.3 °C 1009.7 hPa Calm   9.7 km/h 76% 0 mm
08:29 19.8 °C 15.2 °C 1010 hPa SW 4.8 km/h 12.9 km/h 75% 0 mm
08:34 19.9 °C 15.2 °C 1010 hPa WNW 8 km/h 11.3 km/h 74% 0 mm
08:39 19.9 °C 15.4 °C 1009.7 hPa West 3.2 km/h 12.9 km/h 75% 0 mm
08:44 19.9 °C 15.2 °C 1010 hPa WNW 4.8 km/h 12.9 km/h 74% 0 mm
08:49 20.5 °C 15.7 °C 1010 hPa West 4.8 km/h 12.9 km/h 74% 0 mm
08:54 20.9 °C 15.4 °C 1010 hPa West 4.8 km/h 12.9 km/h 71% 0 mm
08:59 21 °C 15.3 °C 1010 hPa WNW 6.4 km/h 14.5 km/h 70% 0 mm
09:04 20.8 °C 15.2 °C 1010 hPa West 6.4 km/h 11.3 km/h 70% 0 mm
09:09 20.8 °C 15.4 °C 1010 hPa WNW 8 km/h 12.9 km/h 71% 0 mm
09:14 20.8 °C 15.1 °C 1010 hPa WSW 6.4 km/h 17.7 km/h 70% 0 mm
09:19 20.8 °C 15.2 °C 1010 hPa WSW 6.4 km/h 17.7 km/h 70% 0 mm
09:24 20.8 °C 15.2 °C 1010.4 hPa WSW 6.4 km/h 12.9 km/h 70% 0 mm
09:29 20.9 °C 15.3 °C 1010.4 hPa WSW 6.4 km/h 12.9 km/h 70% 0 mm
09:34 21.1 °C 15.4 °C 1010.4 hPa WSW 6.4 km/h 14.5 km/h 70% 0 mm
09:39 21.4 °C 15.5 °C 1010.4 hPa West 6.4 km/h 14.5 km/h 69% 0 mm
09:44 21.9 °C 15.9 °C 1010.4 hPa WNW 1.6 km/h 11.3 km/h 69% 0 mm
09:49 22.2 °C 15.8 °C 1010.4 hPa WNW 8 km/h 14.5 km/h 67% 0 mm
09:54 22.4 °C 15.7 °C 1010.4 hPa WSW 6.4 km/h 12.9 km/h 66% 0 mm
09:59 22.3 °C 14.9 °C 1010.4 hPa WSW 9.7 km/h 16.1 km/h 63% 0 mm
10:04 22.4 °C 15.6 °C 1010.4 hPa SSW 11.3 km/h 12.9 km/h 65% 0 mm
10:09 22.3 °C 14.9 °C 1010.4 hPa West 8 km/h 16.1 km/h 63% 0 mm
10:14 22.3 °C 15.7 °C 1010.4 hPa West 3.2 km/h 16.1 km/h 66% 0 mm
10:19 22.4 °C 15.9 °C 1010.4 hPa WSW 9.7 km/h 17.7 km/h 67% 0 mm
10:24 22.3 °C 16.1 °C 1010.4 hPa WSW 8 km/h 17.7 km/h 68% 0 mm
10:29 22.1 °C 16.3 °C 1010.4 hPa WSW 9.7 km/h 19.3 km/h 70% 0 mm
10:34 21.9 °C 16.4 °C 1010.4 hPa WSW 11.3 km/h 19.3 km/h 71% 0 mm
10:39 22.3 °C 16.6 °C 1010.4 hPa SW 9.7 km/h 20.9 km/h 70% 0 mm
10:44 23.2 °C 17.4 °C 1010 hPa WSW 8 km/h 12.9 km/h 70% 0 mm
10:49 23 °C 16.6 °C 1010.4 hPa WSW 8 km/h 19.3 km/h 67% 0 mm
10:54 22.4 °C 16.2 °C 1010.4 hPa WSW 9.7 km/h 19.3 km/h 68% 0 mm
10:59 22.6 °C 16.4 °C 1010.4 hPa WSW 17.7 km/h 20.9 km/h 68% 0 mm
11:04 22.5 °C 16.3 °C 1010.4 hPa WNW 11.3 km/h 25.7 km/h 68% 0 mm
11:09 22.7 °C 16.9 °C 1010.4 hPa SW 22.5 km/h 24.1 km/h 70% 0 mm
11:14 23 °C 16.8 °C 1010.4 hPa SW 9.7 km/h 22.5 km/h 68% 0 mm
11:19 22.9 °C 16.7 °C 1010.7 hPa WSW 9.7 km/h 22.5 km/h 68% 0 mm
11:24 22.6 °C 16.2 °C 1010.7 hPa WSW 11.3 km/h 24.1 km/h 67% 0 mm
11:29 23.1 °C 16.3 °C 1010.7 hPa WSW 12.9 km/h 24.1 km/h 66% 0 mm
11:34 23.3 °C 16.6 °C 1010.7 hPa WSW 12.9 km/h 27.4 km/h 66% 0 mm
11:39 23.4 °C 16.5 °C 1010.7 hPa WSW 12.9 km/h 27.4 km/h 65% 0 mm
11:44 23.4 °C 16.2 °C 1010.7 hPa WNW 20.9 km/h 33.8 km/h 64% 0 mm
11:49 23.2 °C 16.1 °C 1010.7 hPa West 8 km/h 29 km/h 64% 0 mm
11:54 23.4 °C 16.5 °C 1010.7 hPa WSW 12.9 km/h 29 km/h 65% 0 mm
11:59 23.4 °C 16.7 °C 1010.7 hPa WSW 11.3 km/h 25.7 km/h 66% 0 mm
12:04 23.3 °C 16.3 °C 1010.7 hPa WSW 11.3 km/h 22.5 km/h 65% 0 mm
12:09 23.9 °C 17.2 °C 1010.7 hPa West 14.5 km/h 25.7 km/h 66% 0 mm
12:14 24.2 °C 17.7 °C 1010.4 hPa NW 16.1 km/h 20.9 km/h 67% 0 mm
12:19 24.4 °C 17.7 °C 1010.4 hPa SW 6.4 km/h 16.1 km/h 66% 0 mm
12:24 23.9 °C 16.7 °C 1010.4 hPa WSW 11.3 km/h 29 km/h 64% 0 mm
12:29 23.6 °C 16.6 °C 1010.4 hPa SW 11.3 km/h 22.5 km/h 65% 0 mm
12:34 24 °C 17.3 °C 1010.4 hPa SW 14.5 km/h 14.5 km/h 66% 0 mm
12:39 23.8 °C 17.1 °C 1010.4 hPa SW 6.4 km/h 27.4 km/h 66% 0 mm
12:44 23.9 °C 17.2 °C 1010.4 hPa WSW 14.5 km/h 27.4 km/h 66% 0 mm
12:49 23.7 °C 17.4 °C 1010.4 hPa WSW 14.5 km/h 27.4 km/h 68% 0 mm
12:54 23.5 °C 17.3 °C 1010.4 hPa West 19.3 km/h 25.7 km/h 68% 0 mm
12:59 23.3 °C 17.3 °C 1010.4 hPa WSW 12.9 km/h 27.4 km/h 69% 0 mm
13:04 23.3 °C 16.8 °C 1010.4 hPa WSW 12.9 km/h 27.4 km/h 67% 0 mm
13:09 23.3 °C 17.3 °C 1010.4 hPa WSW 12.9 km/h 25.7 km/h 69% 0 mm
13:14 23.2 °C 16.5 °C 1010.4 hPa WSW 12.9 km/h 27.4 km/h 66% 0 mm
13:19 23.3 °C 16.8 °C 1010.4 hPa WSW 12.9 km/h 27.4 km/h 67% 0 mm
13:24 23.4 °C 16.9 °C 1010 hPa West 8 km/h 20.9 km/h 67% 0 mm
13:29 23.3 °C 17.1 °C 1010 hPa WSW 22.5 km/h 22.5 km/h 68% 0 mm
13:34 23.2 °C 17 °C 1010.4 hPa WSW 4.8 km/h 24.1 km/h 68% 0 mm
13:39 23.3 °C 17.3 °C 1010 hPa SSW 11.3 km/h 25.7 km/h 69% 0 mm
13:44 23.6 °C 17.3 °C 1010 hPa SW 12.9 km/h 25.7 km/h 68% 0 mm
13:49 23.9 °C 17.6 °C 1010.4 hPa West 12.9 km/h 19.3 km/h 68% 0 mm
13:54 24.4 °C 17.1 °C 1010.4 hPa WSW 9.7 km/h 29 km/h 64% 0 mm
13:59 24 °C 17.3 °C 1010 hPa SW 14.5 km/h 29 km/h 66% 0 mm
14:04 23.4 °C 17.2 °C 1010 hPa SW 14.5 km/h 27.4 km/h 68% 0 mm
14:09 23.3 °C 17.1 °C 1010.4 hPa WSW 14.5 km/h 24.1 km/h 68% 0 mm
14:14 23.3 °C 17.5 °C 1010.4 hPa West 11.3 km/h 20.9 km/h 70% 0 mm
14:19 23.3 °C 17.3 °C 1010.4 hPa SW 11.3 km/h 19.3 km/h 69% 0 mm
14:24 24.3 °C 17.8 °C 1010.4 hPa SW 12.9 km/h 22.5 km/h 67% 0 mm
14:29 24.6 °C 17.3 °C 1010.4 hPa SW 11.3 km/h 27.4 km/h 64% 0 mm
14:34 24.4 °C 17.1 °C 1010 hPa WSW 12.9 km/h 27.4 km/h 64% 0 mm
14:39 24.3 °C 17.1 °C 1010 hPa WSW 12.9 km/h 29 km/h 64% 0 mm
14:44 24.6 °C 17.1 °C 1010 hPa WSW 14.5 km/h 27.4 km/h 63% 0 mm
14:49 24.6 °C 17.3 °C 1010 hPa SSW 8 km/h 25.7 km/h 64% 0 mm
14:54 24.4 °C 17.4 °C 1010 hPa SW 16.1 km/h 29 km/h 65% 0 mm
14:59 24.7 °C 17.7 °C 1009.7 hPa SW 14.5 km/h 35.4 km/h 65% 0 mm
15:04 24.5 °C 17.5 °C 1009.7 hPa SW 12.9 km/h 35.4 km/h 65% 0 mm
15:09 24.8 °C 17.8 °C 1009.7 hPa West 12.9 km/h 19.3 km/h 65% 0 mm
15:14 24.8 °C 17.6 °C 1009.7 hPa SW 12.9 km/h 19.3 km/h 64% 0 mm
15:19 24.7 °C 17.7 °C 1009.7 hPa WSW 20.9 km/h 25.7 km/h 65% 0 mm
15:24 24.8 °C 17.5 °C 1009.7 hPa SW 11.3 km/h 25.7 km/h 64% 0 mm
15:29 24.5 °C 16.7 °C 1009.7 hPa WSW 12.9 km/h 25.7 km/h 62% 0 mm
15:34 24.7 °C 17.7 °C 1009.7 hPa WSW 14.5 km/h 25.7 km/h 65% 0 mm
15:39 24.4 °C 17.6 °C 1010 hPa WSW 14.5 km/h 29 km/h 66% 0 mm
15:44 24.6 °C 17.6 °C 1010 hPa WSW 14.5 km/h 29 km/h 65% 0 mm
15:49 24 °C 17.5 °C 1010 hPa WSW 12.9 km/h 29 km/h 67% 0 mm
15:54 24.1 °C 17.3 °C 1009.7 hPa WSW 14.5 km/h 30.6 km/h 66% 0 mm
15:59 24.5 °C 17.7 °C 1009.7 hPa WSW 11.3 km/h 20.9 km/h 66% 0 mm
16:04 24.6 °C 17.3 °C 1010 hPa WNW 16.1 km/h 27.4 km/h 64% 0 mm
16:09 24.4 °C 17.4 °C 1010 hPa WNW 9.7 km/h 30.6 km/h 65% 0 mm
16:14 24.3 °C 17.8 °C 1009.7 hPa WSW 14.5 km/h 30.6 km/h 67% 0 mm
16:19 24.6 °C 18.1 °C 1009.7 hPa West 16.1 km/h 29 km/h 67% 0 mm
16:24 24.8 °C 18 °C 1010 hPa SW 6.4 km/h 20.9 km/h 66% 0 mm
16:29 24.2 °C 17.4 °C 1009.7 hPa WSW 20.9 km/h 24.1 km/h 66% 0 mm
16:34 23.5 °C 17.5 °C 1009.7 hPa WSW 12.9 km/h 27.4 km/h 69% 0 mm
16:39 23.1 °C 17.5 °C 1009.7 hPa WSW 12.9 km/h 27.4 km/h 71% 0 mm
16:44 22.8 °C 17.4 °C 1009.7 hPa WSW 12.9 km/h 25.7 km/h 72% 0 mm
16:49 22.6 °C 17.5 °C 1009.7 hPa West 12.9 km/h 24.1 km/h 73% 0 mm
16:54 22.4 °C 17.3 °C 1009.7 hPa West 12.9 km/h 20.9 km/h 73% 0 mm
16:59 22.3 °C 16.8 °C 1009.7 hPa SW 11.3 km/h 16.1 km/h 71% 0 mm
17:04 22.3 °C 16.1 °C 1010 hPa WSW 8 km/h 16.1 km/h 68% 0 mm
17:09 22.5 °C 16.1 °C 1010 hPa WSW 9.7 km/h 17.7 km/h 67% 0 mm
17:14 22.7 °C 16.4 °C 1009.7 hPa WSW 9.7 km/h 17.7 km/h 68% 0 mm
17:19 23 °C 17.2 °C 1009.7 hPa WNW 11.3 km/h 17.7 km/h 70% 0 mm
17:24 23.3 °C 17.8 °C 1009.7 hPa WSW 11.3 km/h 20.9 km/h 71% 0 mm
17:29 23.6 °C 18 °C 1009.7 hPa WNW 6.4 km/h 20.9 km/h 71% 0 mm
17:34 23.9 °C 17.8 °C 1009.7 hPa WSW 9.7 km/h 22.5 km/h 69% 0 mm
17:39 23.7 °C 17.9 °C 1009.7 hPa WSW 9.7 km/h 24.1 km/h 70% 0 mm
17:44 23.2 °C 17.6 °C 1009.7 hPa WSW 9.7 km/h 24.1 km/h 71% 0 mm
17:49 22.9 °C 17.1 °C 1009.7 hPa WSW 11.3 km/h 20.9 km/h 70% 0 mm
17:54 22.7 °C 16.9 °C 1010 hPa West 4.8 km/h 17.7 km/h 70% 0 mm
17:59 22.5 °C 16.8 °C 1010 hPa WSW 11.3 km/h 22.5 km/h 70% 0 mm
18:04 22.3 °C 17.4 °C 1010 hPa WSW 9.7 km/h 22.5 km/h 74% 0 mm
18:09 22.1 °C 17.9 °C 1010 hPa WSW 6.4 km/h 12.9 km/h 77% 0 mm
18:14 21.8 °C 18 °C 1010 hPa West 8 km/h 19.3 km/h 79% 0.25 mm
18:19 21.4 °C 18 °C 1010 hPa West 8 km/h 19.3 km/h 81% 0.25 mm
18:24 21.2 °C 17.9 °C 1010 hPa West 1.6 km/h 11.3 km/h 82% 0.25 mm
18:29 21.2 °C 18.2 °C 1010.4 hPa NNE 3.2 km/h 8 km/h 83% 0.25 mm
18:34 20.9 °C 17.8 °C 1010.4 hPa NW 3.2 km/h 9.7 km/h 82% 0.25 mm
18:39 20.6 °C 17.4 °C 1010.4 hPa NNW 1.6 km/h 9.7 km/h 82% 0.25 mm
18:44 20.7 °C 17.7 °C 1010.4 hPa Calm   3.2 km/h 83% 0.25 mm
18:49 20.8 °C 17.7 °C 1010.4 hPa Calm   6.4 km/h 82% 0.25 mm
18:54 21.2 °C 18.2 °C 1010.4 hPa West 3.2 km/h 6.4 km/h 83% 0.25 mm
18:59 21.2 °C 18 °C 1010.4 hPa Calm   4.8 km/h 82% 0.25 mm
19:04 21.2 °C 17.9 °C 1010.7 hPa Calm   3.2 km/h 82% 0.25 mm
19:09 21.3 °C 17.9 °C 1010.7 hPa Calm   4.8 km/h 81% 0.25 mm
19:14 21.2 °C 17.2 °C 1010.7 hPa NW 3.2 km/h 12.9 km/h 78% 0 mm
19:19 21.2 °C 17 °C 1010.7 hPa NW 4.8 km/h 12.9 km/h 77% 0 mm
19:24 20.9 °C 16.1 °C 1010.7 hPa WNW 4.8 km/h 12.9 km/h 74% 0 mm
19:29 20.8 °C 15.8 °C 1010.7 hPa WNW 4.8 km/h 11.3 km/h 73% 0 mm
19:34 20.7 °C 15.7 °C 1011.1 hPa West 4.8 km/h 9.7 km/h 73% 0 mm
19:39 20.6 °C 15.6 °C 1011.1 hPa WNW 6.4 km/h 11.3 km/h 73% 0 mm
19:44 20.4 °C 15.7 °C 1011.1 hPa West 1.6 km/h 6.4 km/h 74% 0 mm
19:49 20.4 °C 15.7 °C 1011.1 hPa West 4.8 km/h 9.7 km/h 74% 0 mm
19:54 20.4 °C 15.6 °C 1011.4 hPa West 8 km/h 14.5 km/h 74% 0 mm
19:59 20.4 °C 15.6 °C 1011.4 hPa West 11.3 km/h 11.3 km/h 74% 0 mm
20:04 20.4 °C 15.4 °C 1011.4 hPa NW 8 km/h 12.9 km/h 73% 0 mm
20:09 20.4 °C 15.4 °C 1011.4 hPa WNW 8 km/h 17.7 km/h 73% 0 mm
20:14 20.3 °C 15.1 °C 1011.7 hPa West 8 km/h 17.7 km/h 72% 0 mm
20:19 20.3 °C 15.1 °C 1011.7 hPa West 8 km/h 16.1 km/h 72% 0 mm
20:24 20.3 °C 15.1 °C 1011.7 hPa West 8 km/h 17.7 km/h 72% 0 mm
20:29 20.3 °C 15.1 °C 1011.7 hPa West 8 km/h 17.7 km/h 72% 0 mm
20:34 20.2 °C 14.8 °C 1011.7 hPa West 3.2 km/h 12.9 km/h 71% 0 mm
20:39 20.2 °C 14.8 °C 1011.7 hPa West 8 km/h 14.5 km/h 71% 0 mm
20:44 20.2 °C 14.7 °C 1012.1 hPa West 6.4 km/h 11.3 km/h 71% 0 mm
20:49 20.1 °C 14.9 °C 1012.1 hPa West 4.8 km/h 9.7 km/h 72% 0 mm
20:54 20.1 °C 14.8 °C 1012.1 hPa WNW 3.2 km/h 12.9 km/h 72% 0 mm
20:59 19.9 °C 14.7 °C 1012.1 hPa WNW 4.8 km/h 9.7 km/h 72% 0 mm
21:04 19.9 °C 14.7 °C 1012.1 hPa WNW 4.8 km/h 11.3 km/h 72% 0 mm
21:09 19.9 °C 14.7 °C 1012.4 hPa West 4.8 km/h 11.3 km/h 72% 0 mm
21:14 19.8 °C 14.6 °C 1012.4 hPa West 3.2 km/h 8 km/h 72% 0 mm
21:19 19.8 °C 14.6 °C 1012.4 hPa West 4.8 km/h 8 km/h 72% 0 mm
21:24 19.7 °C 14.7 °C 1012.4 hPa West 4.8 km/h 9.7 km/h 73% 0 mm
21:29 19.7 °C 14.7 °C 1012.4 hPa West 1.6 km/h 11.3 km/h 73% 0 mm
21:34 19.5 °C 14.7 °C 1012.4 hPa West 4.8 km/h 8 km/h 74% 0 mm
21:39 19.4 °C 14.6 °C 1012.8 hPa West 4.8 km/h 9.7 km/h 74% 0 mm
21:44 19.3 °C 14.6 °C 1012.8 hPa West 4.8 km/h 9.7 km/h 74% 0 mm
21:49 19.3 °C 14.5 °C 1012.8 hPa West 3.2 km/h 11.3 km/h 74% 0 mm
21:54 19.2 °C 14.7 °C 1012.8 hPa West 4.8 km/h 6.4 km/h 75% 0 mm
21:59 19.1 °C 14.6 °C 1012.8 hPa WSW 4.8 km/h 8 km/h 75% 0 mm
22:04 19.1 °C 14.5 °C 1012.8 hPa West 4.8 km/h 6.4 km/h 75% 0 mm
22:09 19.1 °C 14.5 °C 1012.8 hPa Calm   4.8 km/h 75% 0 mm
22:14 19 °C 14.4 °C 1013.1 hPa Calm   4.8 km/h 75% 0 mm
22:19 18.9 °C 14.4 °C 1013.1 hPa Calm     75% 0 mm
22:24 18.8 °C 14.5 °C 1013.1 hPa Calm     76% 0 mm
22:29 18.8 °C 14.5 °C 1013.1 hPa Calm     76% 0 mm
22:34 18.8 °C 14.5 °C 1013.1 hPa West 3.2 km/h 8 km/h 76% 0 mm
22:39 18.8 °C 14.4 °C 1013.1 hPa Calm   8 km/h 76% 0 mm
22:44 18.8 °C 14.4 °C 1013.1 hPa West 1.6 km/h 8 km/h 76% 0 mm
22:49 18.9 °C 14.6 °C 1013.1 hPa West 1.6 km/h 8 km/h 76% 0 mm
22:54 18.9 °C 14.6 °C 1013.1 hPa West 1.6 km/h 6.4 km/h 76% 0 mm
22:59 18.8 °C 14.5 °C 1013.1 hPa West 3.2 km/h 9.7 km/h 76% 0 mm
23:04 18.8 °C 14.3 °C 1013.1 hPa West 3.2 km/h 9.7 km/h 75% 0 mm
23:09 18.8 °C 14.4 °C 1013.1 hPa West 3.2 km/h 4.8 km/h 76% 0 mm
23:14 18.7 °C 14.3 °C 1013.4 hPa West 1.6 km/h 8 km/h 76% 0 mm
23:24 18.5 °C 14.2 °C 1013.4 hPa West 3.2 km/h 8 km/h 76% 0 mm
23:29 18.4 °C 14.1 °C 1013.8 hPa West 4.8 km/h 11.3 km/h 76% 0 mm
23:34 18.4 °C 13.9 °C 1013.8 hPa SW 4.8 km/h 14.5 km/h 75% 0 mm
23:39 18.4 °C 13.9 °C 1013.8 hPa WNW 1.6 km/h 9.7 km/h 75% 0 mm
23:44 18.3 °C 13.8 °C 1013.8 hPa West 4.8 km/h 9.7 km/h 75% 0 mm
23:49 18.3 °C 13.8 °C 1013.8 hPa West 4.8 km/h 9.7 km/h 75% 0 mm
23:54 18.2 °C 13.7 °C 1013.8 hPa West 4.8 km/h 11.3 km/h 75% 0 mm
23:59 18.2 °C 13.7 °C 1014.1 hPa West 4.8 km/h 11.3 km/h 75% 0 mm
Buffalo, New York, USA
Compliments of Weather Underground - 2.5 mb